Orbital Elements at Epoch 2459200.5 (2020-Dec-17.0) TDB
Reference: JPL 21 (heliocentric ecliptic J2000)
Element | Value | Uncertainty (1-sigma) | Units |
e | .1739709416755323 | 5.2893e-08 | |
a | 3.093698828625589 | 3.5592e-08 | au |
q | 2.555485130149104 | 1.5837e-07 | au |
i | 12.22799509572497 | 4.5244e-06 | deg |
node | 297.7886166143193 | 2.7974e-05 | deg |
peri | 290.7805166099118 | 3.0766e-05 | deg |
M | 228.4785294603853 | 1.5027e-05 | deg |
tp | 2459926.622060700674 (2022-Dec-13.12206070) | 8.7366e-05 | TDB |
period | 1987.538162246345 5.44 | 3.4299e-05 9.391e-08 | d yr |
n | .1811285975979061 | 3.1257e-09 | deg/d |
Q | 3.631912527102074 | 4.1784e-08 | au |
|
| | Orbit Determination Parameters
Additional Information
|